Weather History for Cedar Rapids, IA

Change the Weather History Date:

Thursday, March 27, 2014

  Actual Average Record
Temperature  
Mean Temperature 44 °F 41 °F  
Max Temperature 51 °F 52 °F 81 °F (1945)
Min Temperature 37 °F 31 °F 3 °F (1964)
Degree Days  
Heating Degree Days 21 24  
Month to date heating degree days 985 790  
Since 1 July heating degree days 7024 6073  
Cooling Degree Days 0 0  
Month to date cooling degree days 0 0  
Year to date cooling degree days 0 0  
Moisture  
Dew Point 40 °F    
Average Humidity 75    
Maximum Humidity 92    
Minimum Humidity 57    
Precipitation  
Precipitation 0.14 in 0.08 in 1.12 in (1991)
Month to date precipitation 0.35 1.79  
Year to date precipitation 2.10 3.93  
Sea Level Pressure  
Sea Level Pressure 29.52 in    
Wind  
Wind Speed 17 mph (South)    
Max Wind Speed 29 mph    
Max Gust Speed 37 mph    
Visibility 6 miles    
Events Rain , Thunderstorm    
T = Trace of Precipitation, MM = Missing Value Source: NWS Daily Summary

Daily Weather History Graph

Daily Weather History Graph

Search for Another Location

Airport:

Trip Planner

Search our weather history database for the weather conditions in past years. The results will help you decide how hot, cold, wet, or windy it might be!

Date:

Astronomy

Mar. 27, 2014 Rise Set
Actual Time 6:58 AM CDT 7:26 PM CDT
Civil Twilight 6:30 AM CDT 7:54 PM CDT
Nautical Twilight 5:57 AM CDT 8:27 PM CDT
Astronomical Twilight 5:23 AM CDT 9:01 PM CDT
Moon 4:52 AM CDT (3/27) 4:12 PM CDT (3/27)
Length of Visible Light 13h 24m
Length of Day
12h 28m
Waning Crescent, 13% of the Moon is Illuminated
Mar 27
Waning Crescent
Mar 30
New
Apr 7
First Quarter
Apr 15
Full
Apr 22
Last Quarter

Hourly Weather History & Observations

Time (CDT) Temp. Windchill Dew Point Humidity Pressure Visibility Wind Dir Wind Speed Gust Speed Precip Events Conditions
12:52 AM 42.1 °F 33.6 °F 28.9 °F 60% 29.81 in 10.0 mi South 18.4 mph 25.3 mph N/A   Overcast
1:03 AM 41.0 °F 32.2 °F 33.1 °F 73% 29.79 in 10.0 mi South 18.4 mph 29.9 mph 0.00 in Rain Light Rain
1:52 AM 37.9 °F 28.9 °F 35.1 °F 89% 29.78 in 7.0 mi SSE 16.1 mph - 0.02 in Rain Light Rain
2:12 AM 37.9 °F 28.9 °F 35.1 °F 89% 29.75 in 7.0 mi South 16.1 mph 23.0 mph 0.00 in   Overcast
2:33 AM 37.9 °F 29.2 °F 35.1 °F 89% 29.74 in 6.0 mi South 15.0 mph 25.3 mph 0.00 in   Overcast
2:49 AM 37.4 °F 28.2 °F 35.6 °F 93% 29.74 in 5.0 mi South 16.1 mph - 0.00 in   Overcast
2:52 AM 37.9 °F 29.6 °F 35.1 °F 89% 29.75 in 5.0 mi South 13.8 mph 20.7 mph 0.00 in   Overcast
3:00 AM 37.9 °F 29.6 °F 35.1 °F 89% 29.73 in 5.0 mi South 13.8 mph 24.2 mph N/A   Overcast
3:20 AM 37.9 °F 28.9 °F 35.1 °F 89% 29.72 in 5.0 mi South 16.1 mph - 0.00 in Rain Light Rain
3:52 AM 37.9 °F 28.2 °F 36.0 °F 93% 29.71 in 5.0 mi South 18.4 mph 24.2 mph 0.02 in Rain Light Rain
4:52 AM 37.9 °F 28.9 °F 35.1 °F 89% 29.68 in 4.0 mi South 16.1 mph 23.0 mph 0.00 in   Overcast
5:52 AM 37.0 °F 28.1 °F 35.1 °F 93% 29.67 in 4.0 mi SSE 15.0 mph 23.0 mph 0.00 in   Overcast
6:52 AM 37.0 °F 28.9 °F 35.1 °F 93% 29.66 in 3.0 mi SSE 12.7 mph 23.0 mph 0.00 in   Overcast
7:52 AM 37.9 °F 28.5 °F 35.1 °F 89% 29.64 in 2.5 mi SSE 17.3 mph 24.2 mph N/A   Overcast
7:55 AM 37.9 °F 28.5 °F 35.1 °F 89% 29.62 in 3.0 mi SSE 17.3 mph 25.3 mph N/A   Overcast
8:25 AM 37.9 °F 29.6 °F 35.1 °F 89% 29.61 in 1.8 mi SSE 13.8 mph 26.5 mph N/A   Overcast
8:52 AM 37.9 °F 29.2 °F 36.0 °F 93% 29.61 in 1.2 mi SSE 15.0 mph 24.2 mph 0.00 in Rain Light Rain
9:21 AM 37.9 °F 30.0 °F 36.0 °F 93% 29.58 in 1.0 mi SSE 12.7 mph - 0.00 in Rain Light Rain
9:52 AM 39.0 °F 30.3 °F 37.0 °F 93% 29.58 in 1.2 mi SSE 16.1 mph - 0.00 in Rain Light Rain
10:11 AM 39.0 °F 29.9 °F 37.0 °F 93% 29.56 in 1.5 mi SSE 17.3 mph 24.2 mph 0.00 in Rain Light Rain
10:33 AM 39.0 °F 30.6 °F 37.0 °F 93% 29.54 in 2.5 mi SSE 15.0 mph - 0.00 in Rain Light Rain
10:52 AM 39.9 °F 31.4 °F 37.9 °F 93% 29.55 in 4.0 mi SSE 16.1 mph 23.0 mph 0.00 in   Overcast
11:07 AM 41.0 °F 32.5 °F 37.0 °F 86% 29.53 in 5.0 mi SSE 17.3 mph 25.3 mph N/A   Overcast
11:52 AM 42.1 °F 34.5 °F 39.0 °F 89% 29.52 in 6.0 mi SSE 15.0 mph 24.2 mph N/A   Overcast
12:52 PM 45.0 °F 37.6 °F 39.9 °F 82% 29.49 in 8.0 mi South 17.3 mph 23.0 mph N/A   Overcast
1:52 PM 46.0 °F 39.6 °F 39.9 °F 79% 29.46 in 9.0 mi South 15.0 mph 23.0 mph N/A   Overcast
2:52 PM 46.0 °F 39.9 °F 41.0 °F 83% 29.44 in 5.0 mi South 13.8 mph - 0.01 in Rain Light Rain
3:52 PM 46.9 °F - 43.0 °F 86% 29.39 in 6.0 mi SSE 13.8 mph - 0.03 in Rain Light Rain
4:36 PM 46.9 °F - 44.1 °F 90% 29.35 in 4.0 mi SSE 17.3 mph 25.3 mph 0.01 in Rain Light Rain
4:52 PM 46.9 °F - 45.0 °F 93% 29.35 in 6.0 mi SSE 13.8 mph 24.2 mph 0.01 in   Overcast
5:52 PM 50.0 °F - 46.9 °F 89% 29.32 in 6.0 mi SSE 16.1 mph 24.2 mph 0.03 in   Mostly Cloudy
6:26 PM 51.1 °F - 46.9 °F 86% 29.32 in 7.0 mi South 17.3 mph 25.3 mph N/A Thunderstorm Mostly Cloudy
6:44 PM 51.1 °F - 46.9 °F 86% 29.32 in 8.0 mi South 16.1 mph - N/A   Mostly Cloudy
6:52 PM 51.1 °F - 46.9 °F 86% 29.32 in 9.0 mi SSE 17.3 mph 24.2 mph N/A   Mostly Cloudy
7:52 PM 51.1 °F - 48.0 °F 89% 29.30 in 8.0 mi South 16.1 mph 27.6 mph 0.00 in   Overcast
8:28 PM 50.0 °F - 48.0 °F 93% 29.30 in 5.0 mi SSE 15.0 mph - 0.02 in Rain , Thunderstorm Light Rain
8:45 PM 51.1 °F - 48.0 °F 89% 29.29 in 9.0 mi South 15.0 mph 23.0 mph 0.02 in   Overcast
8:52 PM 51.1 °F - 48.0 °F 89% 29.30 in 9.0 mi South 18.4 mph 24.2 mph 0.02 in   Overcast
9:10 PM 51.1 °F - 48.0 °F 89% 29.30 in 9.0 mi South 21.9 mph 29.9 mph N/A   Overcast
9:21 PM 48.9 °F - 45.0 °F 86% 29.32 in 9.0 mi SW 26.5 mph 34.5 mph N/A   Overcast
9:52 PM 45.0 °F 36.9 °F 43.0 °F 93% 29.36 in 7.0 mi SW 20.7 mph - N/A   Overcast
10:52 PM 45.0 °F 37.6 °F 43.0 °F 93% 29.39 in 9.0 mi NW 17.3 mph 20.7 mph N/A   Overcast
11:01 PM 44.1 °F 35.4 °F 42.1 °F 93% 29.39 in 10.0 mi NW 21.9 mph 26.5 mph N/A   Overcast
11:52 PM 39.0 °F 28.5 °F 36.0 °F 89% 29.50 in 4.0 mi NW 23.0 mph 34.5 mph N/A   Overcast